This is the latest recevied weather packets stored in our database for station/object N1ORT. If no packets are shown the sender has not sent any weather packets the latest 10 day(s).
| Time | Temp. | Humidity | Pressure | Rain* | Wind** | Luminosity | Snow |
|---|---|---|---|---|---|---|---|
| 1777405111 | 14.44° C | 27% | 1019.8 hPa | 0 mm | - | 580 W/m² | - |
| 1777404809 | 15° C | 26% | 1019.8 hPa | 0 mm | - | 591 W/m² | - |
| 1777404506 | 15.56° C | 27% | 1020 hPa | 0 mm | - | 670 W/m² | - |
| 1777404202 | 15.56° C | 25% | 1020 hPa | 0 mm | - | 665 W/m² | - |
| 1777403899 | 15.56° C | 29% | 1020 hPa | 0 mm | - | 698 W/m² | - |
| 1777403598 | 15.56° C | 27% | 1020.2 hPa | 0 mm | - | 704 W/m² | - |
| 1777403298 | 16.11° C | 31% | 1020.2 hPa | 0 mm | - | 729 W/m² | - |
| 1777402994 | 15.56° C | 31% | 1020.3 hPa | 0 mm | - | 740 W/m² | - |
| 1777402689 | 15° C | 33% | 1020.3 hPa | 0 mm | - | 758 W/m² | - |
| 1777402388 | 15.56° C | 36% | 1020.3 hPa | 0 mm | - | 774 W/m² | - |
| 1777402087 | 14.44° C | 38% | 1020.1 hPa | 0 mm | - | 787 W/m² | - |
| 1777401782 | 15° C | 39% | 1020.5 hPa | 0 mm | - | 798 W/m² | - |
| 1777401482 | 15.56° C | 42% | 1020.4 hPa | 0 mm | - | 808 W/m² | - |
| 1777401178 | 14.44° C | 45% | 1020.6 hPa | 0 mm | - | 816 W/m² | - |
| 1777400874 | 15° C | 46% | 1020.6 hPa | 0 mm | - | 826 W/m² | - |
| 1777400570 | 15° C | 46% | 1020.8 hPa | 0 mm | - | 836 W/m² | - |
| 1777400269 | 15.56° C | 47% | 1020.7 hPa | 0 mm | - | 844 W/m² | - |
| 1777399963 | 15° C | 49% | 1020.8 hPa | 0 mm | - | 857 W/m² | - |
| 1777399660 | 15.56° C | 49% | 1020.8 hPa | 0 mm | - | 865 W/m² | - |
| 1777399357 | 15.56° C | 49% | 1020.7 hPa | 0 mm | - | 874 W/m² | - |
| 1777399055 | 15.56° C | 50% | 1020.9 hPa | 0 mm | - | 884 W/m² | - |
| 1777398752 | 15° C | 49% | 1020.8 hPa | 0 mm | - | 890 W/m² | - |
| 1777398449 | 15° C | 49% | 1020.7 hPa | 0 mm | - | 898 W/m² | - |
| 1777398146 | 15.56° C | 48% | 1020.9 hPa | 0 mm | - | 910 W/m² | - |
| 1777397843 | 16.11° C | 49% | 1020.7 hPa | 0 mm | - | 906 W/m² | - |
* Rain latest hour (hover to see other rain measurements)
** Current wind speed in m/s (hover to see current wind gust speed)